{"data":{"norad_id":52553,"intl_designator":"2022-051W","name":"STARLINK-3858","alt_names":[],"object_type":"PAYLOAD","status":"ACTIVE","operator":null,"country":"US","launch_date":"2022-05-13","launch_site_code":"AFWTR","launch_vehicle":null,"mission":null,"orbit_class":"UNKNOWN","rcs_meters":null,"size_class":null,"mass_kg":null,"dimensions":null,"purposes":["comms"],"wikipedia_slug":null,"has_3d_model":false,"image_url":null,"decayed_at":null,"tle_current":{"epoch":"2026-05-25T06:00:02.000160Z","epoch_age_seconds":47415,"freshness":"FRESH","line1":"1 52553U 22051W   26145.25002315  .01215848  00000+0  14595-1 0  9999","line2":"2 52553  53.2199 139.1094 0001278  79.9288 328.1266 15.57841923  5872","mean_motion":15.57841923,"eccentricity":0.0001278,"inclination_deg":53.2199,"raan_deg":139.1094,"arg_perigee_deg":79.9288,"mean_anomaly_deg":328.1266,"bstar":0.014595,"rev_number":587,"period_min":92.435566069947,"perigee_km":393.03860440411,"apogee_km":394.76953810192,"semimajor_km":6772.041071253,"source":"CELESTRAK","updated_at":"2026-05-25T13:38:17.165205Z"}}}